Date,TemperatureHighF,TemperatureAvgF,TemperatureLowF,DewpointHighF,DewpointAvgF,DewpointLowF,HumidityHigh,HumidityAvg,HumidityLow,PressureMaxIn,PressureMinIn,WindSpeedMaxMPH,WindSpeedAvgMPH,GustSpeedMaxMPH,PrecipitationSumIn
2014-1-1,31.4,27.8,21.5,22.7,16.9,10.7,70,63,55,30.45,30.28,24,5,24,0.04
2014-1-2,31.5,29.2,27.9,27.2,24.9,20.9,93,84,67,30.33,30.15,23,6,23,0.00
2014-1-3,18.7,14.9,10.5,17.0,12.1,4.7,93,88,77,30.49,29.65,22,12,22,0.02
2014-1-4,30.2,19.4,6.0,23.7,11.6,0.2,81,72,53,30.59,30.37,13,7,13,0.00
2014-1-5,31.2,28.6,26.6,27.2,22.0,19.8,86,76,70,30.35,30.32,14,9,14,0.00
2014-1-8,22.2,17.6,12.6,10.9,7.2,4.1,76,64,52,30.58,30.49,18,6,18,0.00
2014-1-9,28.2,24.6,21.8,16.7,13.6,9.8,70,63,54,30.70,30.51,21,4,21,0.00
2014-1-10,40.3,32.8,21.9,39.5,28.9,12.3,97,86,66,30.65,30.28,3,0,6,0.15
2014-1-11,58.6,53.1,39.4,57.6,52.1,38.3,98,96,93,30.28,29.55,21,3,23,0.09
2014-1-12,52.2,42.2,37.8,51.4,36.8,29.6,97,81,68,30.09,29.42,23,18,23,0.12
2014-1-13,51.2,43.5,32.4,46.6,36.4,27.7,87,76,61,30.20,29.98,13,10,13,0.12
2014-1-14,51.4,44.1,40.7,49.2,42.8,39.9,98,95,79,29.97,29.69,20,7,22,0.00
2014-1-15,48.4,41.5,36.7,42.9,39.4,35.3,97,92,74,30.06,29.86,13,2,13,0.49
2014-1-16,38.5,38.2,37.9,37.7,37.4,37.1,97,97,97,29.94,29.91,4,1,4,0.04
2014-1-17,44.9,36.8,30.4,36.0,31.8,25.8,94,83,57,30.05,29.96,13,5,13,0.78
2014-1-18,44.4,36.7,32.0,42.1,32.8,26.0,94,86,77,29.94,29.64,23,9,25,0.13
2014-1-19,36.6,31.9,26.5,26.8,22.8,18.4,80,69,58,29.84,29.68,20,5,20,0.06
2014-1-20,43.7,38.6,32.0,33.9,28.5,24.3,82,67,50,29.92,29.60,19,6,26,0.04
2014-1-21,31.9,22.0,16.8,25.2,17.3,11.5,93,82,66,30.06,29.82,9,2,10,0.07
2014-1-22,17.0,14.0,10.9,15.1,9.4,6.0,92,82,66,29.99,29.75,20,4,20,0.00
2014-1-23,20.5,15.2,11.2,10.1,6.6,4.0,78,69,54,30.29,29.99,26,8,30,0.00
2014-1-24,17.4,14.5,12.1,7.6,4.2,-0.1,74,63,52,30.39,30.16,27,6,27,0.00
2014-1-25,37.4,27.7,12.5,26.0,19.3,3.9,93,71,54,30.16,29.47,21,4,26,0.00
2014-1-26,26.5,21.0,17.3,21.1,10.6,2.8,82,65,44,29.93,29.49,37,9,37,0.00
2014-1-27,44.8,36.8,23.6,37.8,27.6,7.3,82,70,48,30.06,29.65,27,14,27,0.27
2014-1-28,23.0,17.4,15.6,9.7,3.0,-0.5,71,53,44,30.39,30.08,25,6,25,0.00
2014-1-29,23.9,18.9,15.6,15.4,8.9,-0.7,91,67,38,30.32,30.11,24,5,26,0.05
2014-1-30,28.2,20.5,12.5,22.5,10.2,1.0,90,64,47,30.50,30.25,20,2,21,0.12
2014-1-31,36.9,31.8,24.6,26.8,21.7,15.6,91,67,48,30.29,30.13,15,4,15,0.04
2014-2-1,46.0,37.6,33.5,36.6,26.3,18.3,94,65,42,30.39,30.07,8,1,8,0.09
2014-2-2,48.7,40.3,35.4,40.8,36.7,32.3,97,87,64,30.12,29.95,11,2,11,0.17
2014-2-3,37.4,32.6,29.5,32.6,30.8,28.5,96,93,80,30.34,30.10,6,0,6,0.00
2014-2-4,30.5,27.9,26.0,28.7,24.9,22.4,97,88,78,30.51,30.33,13,3,16,0.07
2014-2-5,33.6,30.9,28.2,32.5,29.5,24.1,97,95,82,30.33,29.65,17,4,18,0.01
2014-2-6,28.7,25.8,22.1,26.7,20.9,16.3,93,82,72,30.31,29.97,11,2,11,0.00
2014-2-7,31.5,27.0,24.0,20.7,18.1,15.2,82,69,52,30.36,30.24,21,6,23,0.01
2014-2-8,29.4,26.0,23.4,18.7,13.0,8.4,65,57,47,30.37,30.17,22,5,22,0.00
2014-2-9,29.4,25.3,21.2,22.2,16.0,12.4,92,68,54,30.21,30.02,7,1,7,0.00
2014-2-10,28.3,25.2,22.4,23.8,17.3,13.5,92,72,56,30.30,29.99,23,6,23,0.00
2014-2-11,25.2,21.1,18.4,14.1,12.3,10.5,76,69,57,30.50,30.30,13,3,13,0.70
2014-2-12,18.4,17.2,15.6,11.7,10.7,9.5,77,75,74,30.52,30.49,8,3,9,0.01
2014-2-21,54.3,41.9,35.6,53.7,39.9,33.9,98,93,65,30.11,29.73,22,10,22,0.10
2014-2-22,51.5,43.5,37.2,36.7,31.0,23.8,87,63,35,30.08,29.94,17,12,17,0.44
2014-2-23,49.9,44.2,38.6,35.7,32.4,28.8,85,64,44,30.05,29.86,11,8,11,0.03
2014-2-24,45.8,34.0,27.0,35.4,24.1,14.6,93,68,50,30.07,29.82,30,18,30,0.00
2014-2-25,30.1,27.3,25.2,21.6,16.5,12.8,71,64,56,30.09,29.95,29,19,29,0.12
2014-2-26,29.7,25.1,18.5,24.2,14.4,6.9,89,64,50,30.01,29.83,22,10,22,0.07
2014-2-27,32.3,22.3,13.2,22.9,9.3,0.5,86,57,41,30.07,29.66,36,13,36,0.21
2014-2-28,21.8,16.6,12.4,5.2,2.1,-2.2,67,53,43,30.49,30.07,26,5,26,0.04
2014-3-1,38.9,27.6,15.6,27.5,15.5,-1.6,84,61,42,30.49,30.19,12,1,12,0.12
2014-3-2,37.1,33.7,29.4,30.0,26.5,22.9,92,75,61,30.19,30.02,11,2,12,0.07
2014-3-3,30.9,21.8,17.4,22.9,12.7,6.7,89,68,56,30.35,30.03,10,2,10,0.00
2014-3-4,24.7,20.2,12.8,14.9,10.6,5.9,76,66,55,30.46,30.30,6,1,7,0.00
2014-3-5,37.1,29.1,22.9,23.2,18.7,12.1,86,65,46,30.47,30.26,8,1,8,0.25
2014-3-6,30.1,23.3,17.1,21.8,11.9,5.1,82,62,41,30.67,30.48,7,2,9,0.03
2014-3-7,34.5,30.5,24.0,30.3,25.4,17.2,89,81,75,30.54,29.95,14,2,14,0.00
2014-3-8,48.9,37.9,31.0,33.6,30.3,25.8,91,75,54,29.95,29.79,15,4,15,0.87
2014-3-9,39.9,35.6,32.6,32.2,27.5,21.2,91,73,51,30.03,29.91,13,5,15,0.11
2014-3-10,45.0,38.0,32.8,36.8,29.1,14.9,93,71,42,29.98,29.66,16,2,16,0.15
2014-3-11,60.5,48.4,38.3,38.4,35.6,30.6,90,63,35,29.75,29.57,22,5,22,0.20
2014-3-12,61.8,49.9,40.1,53.6,44.8,35.5,97,84,48,29.74,29.03,18,3,24,0.38
2014-3-13,41.4,25.0,20.5,39.7,16.1,9.2,94,69,49,30.08,29.08,34,12,34,0.02
2014-3-14,21.7,21.3,20.9,12.0,10.1,8.4,66,62,58,30.14,30.08,19,8,19,0.00
2014-4-28,61.4,49.8,43.1,43.4,39.9,36.9,84,71,41,30.21,30.06,12,7,12,0.02
2014-4-29,49.5,45.9,41.6,42.0,39.4,37.3,90,78,68,30.50,30.21,19,13,19,0.04
2014-4-30,51.9,43.9,41.3,51.4,42.1,37.3,98,93,83,30.51,30.08,19,13,19,1.12
2014-5-1,69.9,59.7,53.3,63.0,57.7,52.8,98,94,77,30.05,29.71,18,11,18,1.39
2014-5-2,67.3,56.9,49.9,55.0,45.0,39.1,97,66,45,29.87,29.73,22,10,22,0.05
2014-5-3,69.1,58.4,51.8,49.3,42.5,38.4,82,56,38,29.92,29.79,16,8,16,0.09
2014-5-4,64.7,55.1,51.0,50.4,42.5,38.0,91,63,39,29.79,29.63,27,13,27,0.00
2014-5-5,61.9,54.5,49.4,46.9,43.3,38.6,82,67,46,29.91,29.76,19,6,21,0.00
2014-5-6,62.6,54.5,46.0,46.8,43.2,38.1,89,67,45,30.08,29.90,11,4,12,0.00
2014-5-7,52.4,50.3,47.5,43.5,42.7,40.6,80,75,70,30.14,30.09,7,2,7,0.00
2014-7-12,85.2,74.2,63.3,71.3,64.1,60.3,92,73,47,30.27,30.18,10,4,10,0.06
2014-7-13,82.6,74.3,68.5,72.7,69.3,67.0,96,85,69,30.18,29.96,17,9,17,0.00
2014-7-14,83.2,75.8,71.7,76.0,72.1,69.7,96,88,79,29.97,29.89,14,5,14,0.28
2014-7-15,82.2,75.0,69.8,76.6,73.3,68.9,98,95,81,29.91,29.79,13,6,13,0.89
2014-7-16,73.8,70.9,68.7,72.6,67.8,60.8,98,90,73,29.90,29.79,7,4,7,0.06
2014-7-17,82.9,73.4,65.8,66.5,63.1,59.0,92,72,48,30.11,29.91,7,2,7,0.01
2014-7-18,80.8,70.3,65.4,65.2,60.9,56.6,90,73,47,30.26,30.12,8,2,8,3.76
2014-7-19,79.8,70.4,63.9,70.6,61.9,55.0,89,75,57,30.29,30.22,5,0,6,0.00
2014-7-20,76.5,70.3,65.9,67.8,63.4,59.9,89,79,66,30.23,30.14,8,1,9,0.04
2014-7-21,85.0,71.7,64.1,68.7,64.2,60.9,94,78,50,30.24,30.17,5,0,6,0.01
2014-7-22,85.6,74.4,65.5,71.6,66.9,61.7,95,78,61,30.21,30.07,12,2,12,0.01
2014-7-23,86.2,77.3,69.4,75.3,70.4,65.2,94,80,66,30.08,29.82,14,2,14,0.00
2014-7-24,82.8,74.1,68.8,70.4,68.6,64.6,95,83,66,29.92,29.81,8,1,8,0.00
2014-7-25,80.6,72.0,66.2,67.6,62.1,58.6,96,73,49,30.06,29.92,6,1,6,0.01
2014-7-26,82.3,72.0,66.3,67.3,64.8,57.5,96,80,46,30.05,29.94,10,1,10,0.00
2014-7-27,83.3,74.9,68.8,74.4,70.5,66.3,97,87,72,29.95,29.71,12,1,12,0.01
2014-7-28,83.0,75.3,68.3,74.7,69.1,60.3,96,82,58,29.72,29.54,16,2,17,0.20
2014-7-29,77.6,70.4,65.3,64.9,59.8,55.0,85,70,49,30.00,29.66,12,2,13,0.00
2014-7-30,83.3,71.6,63.3,65.5,60.3,52.7,91,70,40,30.09,29.99,6,0,6,0.03
2014-7-31,82.7,72.7,64.1,66.3,62.8,56.8,95,73,46,30.20,30.08,12,1,12,0.00
2014-8-1,84.5,74.0,68.5,73.4,69.1,65.3,96,85,66,30.26,30.19,9,1,9,0.16
2014-8-2,70.3,66.5,62.9,69.1,64.6,61.1,96,94,90,30.25,30.14,13,1,13,0.62
2014-8-3,72.7,67.3,64.0,67.5,64.4,62.1,96,90,82,30.17,30.08,7,0,7,0.01
2014-8-4,80.7,72.1,63.8,73.3,68.4,62.8,98,89,70,30.11,30.06,9,0,9,0.19
2014-8-5,89.5,76.4,69.1,76.1,70.3,66.9,97,83,56,30.08,29.94,6,0,6,0.01
2014-8-6,80.7,73.4,66.9,70.3,66.9,63.4,97,81,61,29.96,29.85,9,1,10,0.00
2014-8-7,79.2,72.4,64.6,66.9,62.3,56.4,87,71,58,30.02,29.90,10,1,10,0.00
2014-8-8,78.3,71.4,65.1,65.7,61.2,56.7,86,71,54,30.11,30.02,10,2,10,0.00
2014-8-9,81.7,74.7,65.9,68.1,64.0,59.4,91,70,52,30.14,30.08,8,2,8,0.00
2014-8-10,88.0,75.8,66.6,68.7,64.9,57.6,94,71,38,30.17,30.12,6,0,6,0.01
2014-8-11,86.5,75.0,67.0,74.6,67.0,62.0,97,79,49,30.19,30.15,7,1,7,0.40
2014-8-12,81.1,72.8,64.7,71.0,67.5,63.3,97,84,63,30.15,29.97,11,1,12,0.00
2014-8-13,80.7,72.4,67.0,75.6,69.3,64.7,98,90,78,29.97,29.67,17,2,17,2.38
2014-8-14,70.6,69.4,68.2,65.2,62.7,61.0,83,79,77,29.79,29.77,5,1,5,0.00
2014-8-15,71.2,67.4,63.1,62.7,57.2,53.0,88,71,56,30.01,29.89,14,7,14,0.00
2014-8-16,77.2,68.7,62.1,64.9,59.7,54.0,91,74,49,30.05,29.95,14,4,14,0.00
2014-8-17,80.3,71.4,65.2,69.7,64.7,60.3,94,80,68,29.95,29.83,10,1,10,0.00
2014-8-18,77.8,69.7,63.9,64.9,60.9,58.1,87,74,58,29.94,29.86,12,1,12,0.00
2014-8-19,79.5,69.8,61.5,65.8,61.4,55.1,96,75,58,29.98,29.90,7,1,7,0.00
2014-8-20,83.0,71.1,63.2,70.9,64.9,60.3,98,82,52,30.07,29.97,6,0,6,0.02
2014-8-21,80.9,70.4,62.6,71.3,64.6,59.2,96,83,55,30.11,30.06,6,0,8,0.02
2014-8-22,76.3,68.9,60.5,68.8,63.1,58.4,95,82,60,30.10,30.05,9,1,10,0.09
2014-8-23,80.5,69.1,64.1,66.4,62.4,57.9,89,80,60,30.16,30.08,11,2,11,0.02
2014-8-24,81.3,70.0,61.1,66.5,59.7,56.1,86,71,55,30.19,30.14,6,0,6,0.00
2014-8-25,88.0,72.6,61.9,71.4,65.5,56.9,92,79,52,30.20,30.14,6,1,6,0.01
2014-8-26,85.0,73.6,65.1,71.5,66.5,62.6,97,80,54,30.21,30.11,6,0,6,0.01
2014-8-27,87.7,75.5,65.6,70.5,65.8,61.1,92,74,48,30.12,29.90,9,1,10,0.03
2014-8-28,79.8,73.5,67.1,69.7,63.6,57.3,92,72,55,30.05,29.86,7,1,7,0.01
2014-8-29,67.8,66.1,64.8,59.6,58.2,57.3,78,76,73,30.10,30.05,3,0,3,0.00
2014-8-30,77.4,69.1,57.0,66.0,63.1,55.6,96,82,61,30.32,30.19,8,2,8,0.01
2014-8-31,86.5,75.9,69.0,77.4,71.5,65.9,95,87,72,30.20,30.01,12,1,13,0.07
2014-9-1,87.7,77.5,72.6,76.7,73.2,71.2,96,87,65,30.04,29.96,6,1,7,0.01
2014-9-2,90.5,81.7,73.3,78.7,74.8,72.0,97,81,61,29.98,29.81,10,1,11,0.00
2014-9-3,80.5,76.0,71.0,72.3,65.7,59.1,87,71,53,30.13,29.81,13,2,18,0.00
2014-9-4,87.2,75.8,65.2,70.8,66.9,61.1,97,77,44,30.24,30.13,7,1,7,0.00
2014-9-5,86.8,76.3,68.5,75.4,71.6,67.3,97,86,66,30.22,30.05,14,1,14,0.00
2014-9-6,87.4,79.1,72.8,78.1,73.7,65.5,97,84,67,30.05,29.84,13,2,16,0.00
2014-9-7,81.3,72.3,63.9,68.2,63.9,59.9,94,76,54,30.22,29.96,6,0,6,0.04
2014-9-8,76.2,68.1,63.7,66.1,60.3,53.9,96,77,56,30.38,30.23,10,1,11,0.00
2014-9-9,72.3,67.3,63.5,63.6,60.4,55.6,89,79,72,30.33,30.18,11,2,13,0.00
2014-9-10,79.7,68.3,62.7,66.0,62.4,60.2,94,82,61,30.18,30.07,12,1,13,0.00
2014-9-11,80.2,71.1,61.1,73.1,67.1,60.1,97,88,72,30.07,29.85,17,1,17,0.01
2014-9-12,70.3,65.9,63.2,63.2,59.5,57.3,83,80,76,30.02,29.96,3,1,5,0.00
2014-9-13,69.7,63.6,60.4,60.7,58.5,55.5,96,84,66,30.25,30.12,16,6,16,0.42
2014-9-14,68.1,60.5,54.8,59.1,51.7,48.8,96,74,56,30.30,30.16,7,4,7,0.02
2014-9-15,69.7,61.2,55.4,54.6,51.3,46.4,89,72,46,30.28,30.13,6,3,6,0.01
2014-9-16,68.1,61.5,56.2,61.3,56.7,50.7,93,85,75,30.13,30.00,8,2,8,0.06
2014-9-17,71.4,63.9,57.9,55.4,51.6,46.7,81,65,45,30.09,30.00,5,3,5,0.00
2014-9-18,73.8,68.6,59.5,58.7,54.6,50.5,88,62,47,30.13,29.98,8,1,8,0.00
2014-9-19,64.8,57.8,49.2,56.3,48.1,44.0,89,71,49,30.44,30.13,9,2,13,0.00
2014-9-20,74.3,63.2,50.1,63.9,56.5,47.3,95,80,59,30.41,30.10,10,1,11,0.00
2014-9-21,78.1,71.4,66.1,73.2,69.0,63.1,97,92,82,30.10,29.63,6,1,8,1.16
2014-9-22,70.7,66.3,56.6,68.0,57.4,46.3,98,74,56,30.17,29.64,16,5,18,0.01
2014-9-23,72.2,60.3,53.9,53.8,49.3,45.0,78,68,49,30.46,30.17,6,0,7,0.02
2014-9-24,69.8,64.1,56.5,58.3,55.7,49.6,87,75,63,30.61,30.46,9,1,10,0.00
2014-9-25,62.3,61.0,59.3,60.5,57.8,53.0,96,90,74,30.53,30.24,16,10,16,0.52
2014-9-26,78.9,64.2,58.3,63.1,58.9,55.7,96,84,51,30.25,30.18,9,2,9,0.03
2014-9-27,85.5,68.3,60.4,65.7,61.1,58.5,94,79,47,30.25,30.18,6,0,8,0.01
2014-9-28,80.3,69.4,64.9,71.2,63.1,57.7,92,81,60,30.21,30.04,6,1,6,0.01
2014-9-29,76.5,67.7,63.5,69.6,64.7,61.6,96,90,78,30.04,29.95,7,0,8,0.01
2014-9-30,66.6,63.0,60.3,65.7,61.5,58.3,97,95,92,30.03,29.96,9,1,10,0.11
2014-10-1,62.7,60.6,59.2,60.6,59.2,58.0,97,95,91,30.11,30.01,8,2,11,0.40
2014-10-2,64.1,60.6,58.0,59.8,57.4,53.8,96,89,81,30.18,30.09,9,2,10,0.01
2014-10-3,66.5,58.7,52.8,56.8,53.6,50.8,96,83,67,30.18,29.92,8,1,9,0.00
2014-10-4,67.7,62.0,57.4,66.8,59.7,49.9,97,92,70,29.92,29.51,15,2,18,0.80
2014-10-5,59.6,53.5,49.1,50.6,42.6,38.1,79,67,49,30.03,29.67,15,4,17,0.37
2014-10-6,68.2,57.8,45.0,55.9,47.7,39.3,90,70,54,30.15,30.03,12,1,14,0.14
2014-10-7,71.7,66.2,59.6,63.1,61.1,55.7,94,84,70,30.13,30.00,12,2,13,0.09
2014-10-8,70.6,65.6,60.5,63.2,56.6,46.8,95,74,50,30.00,29.82,19,4,19,0.15
2014-10-9,66.8,61.0,54.2,52.1,44.7,40.7,68,55,44,30.09,29.95,17,4,19,0.09
2014-10-10,63.1,57.5,49.8,50.2,46.5,43.3,84,67,52,30.17,30.06,12,1,12,0.00
2014-10-11,56.4,53.3,49.8,53.3,50.1,47.3,96,89,73,30.19,30.07,13,2,15,0.60
2014-10-12,65.6,54.6,49.0,50.1,45.9,37.6,93,74,41,30.36,30.18,7,0,7,0.39
2014-10-13,66.3,56.4,47.1,60.2,51.2,42.3,94,83,69,30.39,30.30,6,0,6,0.00
2014-10-14,76.5,68.9,61.8,65.6,63.9,60.1,95,85,68,30.30,30.17,12,1,12,0.00
2014-10-15,79.3,72.1,68.0,70.6,67.6,65.4,93,86,74,30.17,30.03,10,2,12,0.12
2014-10-31,55.4,50.7,46.5,49.0,45.3,41.1,93,82,74,30.06,29.94,19,8,19,0.03
2014-11-1,51.2,48.0,44.5,46.2,44.0,41.9,96,87,75,29.93,29.76,19,10,19,0.66
2014-11-2,49.1,44.9,43.2,42.8,36.0,28.5,93,72,54,29.99,29.69,26,14,26,0.01
2014-11-3,56.7,47.7,42.1,38.5,32.8,24.9,72,57,32,30.16,29.98,24,12,24,0.00
2014-11-4,67.2,57.2,52.1,51.7,39.3,24.8,80,53,32,30.20,30.07,16,8,16,0.07
2014-11-5,66.6,59.4,54.4,52.9,44.6,34.6,82,60,41,30.18,30.03,15,10,15,0.01
2014-11-6,58.0,51.9,47.4,57.4,50.4,39.4,98,95,59,30.15,29.58,9,1,9,0.85
2014-11-7,50.9,48.1,42.5,48.7,41.5,32.5,94,78,61,29.92,29.55,23,6,23,0.02
2014-11-8,48.1,41.9,37.3,36.1,32.5,29.5,80,69,52,30.07,29.92,14,2,16,0.00
2014-11-9,55.0,48.8,41.4,42.9,39.9,35.0,83,72,56,30.05,29.94,9,2,11,0.00
2014-11-10,58.1,49.2,41.5,46.6,41.9,38.0,90,76,59,30.24,30.05,6,0,6,0.60
2014-11-11,65.9,54.6,45.9,56.7,51.5,43.1,97,90,68,30.21,29.96,9,1,9,0.46
2014-11-12,59.9,54.4,45.1,58.3,52.1,37.6,98,92,75,30.09,29.90,11,1,13,0.00
2014-11-13,45.1,42.9,41.4,37.6,36.3,34.3,79,77,75,30.13,30.08,4,1,5,0.00
2014-11-14,42.1,39.7,37.6,38.1,30.8,25.0,96,71,56,30.17,29.96,12,3,15,0.15
2014-11-15,39.9,36.4,31.4,27.9,25.1,19.6,73,64,49,30.40,30.17,12,3,12,0.00
2014-11-16,43.7,38.4,30.0,35.6,27.3,21.1,80,65,46,30.43,30.16,7,1,7,0.00
2014-11-17,59.2,48.1,39.8,58.6,46.4,34.9,98,94,76,30.17,29.51,26,4,26,1.64
2014-11-18,48.5,34.5,24.4,42.5,21.6,8.0,80,59,43,30.10,29.55,30,10,30,0.00
2014-11-19,34.4,29.0,24.4,22.2,16.6,9.5,73,60,38,30.27,30.09,29,6,29,0.00
2014-11-20,48.0,39.7,31.4,34.4,24.9,18.1,67,55,39,30.13,29.86,26,6,29,0.00
2014-11-21,35.9,32.7,30.2,22.2,19.6,16.4,68,58,50,30.52,30.01,26,8,26,0.00
2014-11-22,40.6,32.3,25.6,24.7,16.1,13.1,61,52,38,30.52,30.31,16,4,16,0.00
2014-11-30,56.8,50.5,37.9,48.0,42.5,32.6,85,74,62,30.28,30.11,18,9,18,0.01
2014-12-1,62.4,51.5,40.1,50.1,45.5,31.8,88,80,64,30.46,30.11,13,8,13,0.02
2014-12-2,43.9,39.9,38.3,42.8,34.0,28.9,96,80,65,30.68,30.37,18,10,18,0.13
2014-12-3,49.5,46.1,42.4,48.5,43.8,34.8,98,92,69,30.35,29.99,25,12,25,0.31
2014-12-4,43.2,39.9,36.3,33.3,29.6,26.2,70,66,61,30.56,30.21,23,10,23,0.00
2014-12-5,49.3,40.8,34.7,48.5,35.2,26.6,97,81,67,30.65,30.37,14,10,14,0.24
2014-12-6,49.9,45.6,40.8,49.1,44.7,40.0,97,97,95,30.36,30.13,10,1,10,1.09
2014-12-7,40.8,36.3,28.3,40.0,29.9,17.6,97,78,63,30.66,30.21,10,2,15,0.14
2014-12-8,36.5,30.9,26.4,34.4,26.4,14.2,92,83,58,30.72,30.39,22,6,23,0.00
2014-12-9,44.2,41.1,36.2,43.7,40.3,34.2,98,97,92,30.38,29.56,24,6,24,2.00
2014-12-10,40.7,40.2,39.5,39.9,39.4,38.7,98,97,97,29.64,29.60,10,4,11,0.00
2014-12-11,35.8,33.7,30.4,32.6,27.1,24.3,95,77,66,29.89,29.58,20,10,20,0.01
2014-12-12,36.2,34.4,32.9,30.9,28.6,25.9,87,79,72,29.99,29.88,13,4,15,0.00
2014-12-13,40.6,36.8,34.3,33.3,31.2,29.2,85,80,70,29.98,29.88,13,5,15,0.00
2014-12-14,42.3,39.6,37.2,36.5,34.8,32.8,87,83,78,29.99,29.87,13,3,13,0.00
2014-12-15,42.2,37.9,34.8,34.1,32.9,31.1,92,82,69,30.17,29.98,5,1,5,0.00
2014-12-16,46.3,41.3,34.4,45.0,38.2,32.1,96,89,81,30.17,29.93,8,1,8,0.07
2014-12-17,47.0,44.3,41.0,44.1,41.6,36.0,97,90,76,29.88,29.80,20,11,20,0.24
2014-12-18,42.7,39.6,37.4,36.6,31.9,29.6,80,74,65,29.99,29.86,25,10,25,0.01
2014-12-19,38.6,35.8,31.5,31.6,29.1,25.7,81,76,68,30.20,29.97,13,3,16,0.00
2014-12-20,33.8,32.2,30.1,31.0,27.7,25.6,91,83,79,30.33,30.20,5,0,5,0.00
2014-12-21,37.5,35.7,33.8,36.5,34.0,29.5,96,93,84,30.37,30.29,10,0,10,0.06
2014-12-22,46.1,41.5,36.8,43.3,39.5,35.5,95,93,89,30.38,30.24,7,2,12,0.05
2014-12-23,46.1,44.9,44.1,45.1,43.9,42.6,98,96,92,30.24,30.10,14,3,14,0.23
2014-12-24,62.6,51.2,44.6,62.3,50.8,44.1,99,98,98,30.13,29.58,13,2,21,0.83
2014-12-25,57.5,50.0,44.9,57.2,45.3,35.3,99,84,66,30.11,29.54,24,8,25,0.14
2014-12-26,45.0,42.2,36.6,38.2,34.4,30.5,82,74,64,30.27,30.10,16,5,17,0.00
2014-12-27,46.8,43.0,40.3,41.3,37.1,32.3,92,80,65,30.30,30.11,13,3,13,0.00
2014-12-28,50.3,46.1,40.6,45.2,42.5,35.5,95,87,80,30.11,29.89,15,4,15,0.10
2014-12-29,41.1,38.4,33.8,35.5,29.9,25.5,83,71,61,30.28,30.08,7,2,9,0.09
2014-12-30,33.8,29.6,24.7,27.0,19.5,14.5,76,66,57,30.43,30.28,18,2,18,0.00
2014-12-31,30.5,26.9,23.2,20.1,14.2,10.5,71,59,49,30.41,30.21,19,4,19,0.00
2015-1-1,38.7,31.4,24.1,22.5,14.2,8.2,62,49,37,30.21,30.02,28,6,28,0.00
2015-1-2,40.0,37.6,34.9,28.6,24.0,19.5,71,58,48,30.49,30.04,23,8,25,0.00